Temperature
14 14 14 14 14 14 15 15 15 15 16 16 16 16 16 17 17 17 17 18 18 18 18 18 18 18 18 18 18 18 18 18 18 18 18 18 18 17 17 17 17 17 18
14 14 14 14 14 14 14 14 15 15 15 16 16 16 16 16 16 17 17 17 18 18 18 18 18 18 18 18 18 18 18 18 17 18 17 17 17 17 17 17 17 17 17
13 13 13 13 14 14 14 14 14 15 15 15 15 16 16 16 16 17 17 17 17 17 18 18 18 18 18 18 18 18 18 18 17 17 17 17 17 17 17 17 17 17 17
13 13 13 13 13 13 14 14 14 14 15 15 15 15 16 16 16 17 17 17 17 17 17 17 17 17 17 17 17 17 17 17 17 17 17 17 17 17 17 17 17 17 17
13 13 13 13 13 13 13 13 14 14 14 14 15 15 15 16 16 16 17 17 17 17 17 17 17 17 17 17 17 17 17 17 17 17 17 17 17 17 17 17 17 17 17
12 13 13 13 13 13 13 13 13 13 14 14 15 15 15 15 16 16 16 17 17 17 17 17 17 17 17 17 17 17 17 17 17 17 17 17 17 17 17 17 17 17 17
12 12 12 12 12 13 13 13 13 13 14 14 14 15 15 15 15 16 16 16 16 17 17 17 17 17 17 17 17 17 17 17 17 17 17 17 17 17 17 17 17 17 17
12 12 12 12 12 12 12 12 13 13 13 14 14 15 15 15 15 15 16 16 16 16 16 17 17 16 17 17 17 17 17 17 17 17 17 17 17 17 17 17 17 17 17
12 12 12 12 12 12 12 12 13 13 13 13 14 14 15 16 15 15 15 16 16 16 16 16 16 16 16 16 17 17 17 17 17 17 17 17 17 17 17 17 17 17 17
12 12 12 12 12 12 12 12 12 13 13 13 13 14 14 14 15 15 15 15 15 16 16 16 16 16 16 16 16 17 17 17 17 17 17 17 17 17 17 16 16 16 16
12 12 12 12 12 12 12 12 12 12 13 13 13 14 14 14 15 15 15 15 15 15 15 16 16 16 16 16 16 16 16 17 17 17 16 16 16 16 16 16 16 16 16
12 12 12 12 12 12 12 12 12 12 12 13 13 13 14 14 14 14 15 15 15 15 15 15 15 16 16 16 16 16 16 16 16 16 16 16 16 16 16 16 16 16 16
12 12 12 12 12 12 12 12 12 12 12 13 13 13 13 14 14 14 14 14 14 14 14 15 15 15 15 16 16 16 16 16 16 16 16 16 16 16 16 16 16 16 16
12 12 12 12 12 12 12 12 12 12 12 13 13 13 13 13 13 14 14 14 14 15 15 15 15 15 15 15 15 16 16 16 16 16 16 16 16 16 16 16 16 16 16
12 12 12 12 12 12 12 12 12 12 12 13 13 13 13 13 13 13 13 14 14 15 15 14 14 14 14 15 15 15 15 15 16 16 16 16 16 16 16 16 16 16 16
12 12 12 12 12 12 12 12 12 12 12 12 13 13 13 13 13 13 13 13 13 14 14 14 14 14 14 14 15 15 15 15 15 15 15 15 15 15 15 15 15 15 15
12 12 12 12 12 12 12 12 12 12 12 12 12 12 12 12 13 13 13 13 13 13 14 14 14 14 14 14 14 14 15 15 15 15 15 15 15 15 15 15 15 15 15
12 12 12 12 12 12 12 12 12 12 12 12 12 12 12 12 12 13 13 13 13 13 13 13 13 13 13 13 14 14 14 14 15 15 15 15 15 15 15 15 15 15 15
12 12 12 12 12 12 12 12 12 12 12 12 12 12 12 12 12 12 12 13 13 13 13 13 13 13 13 13 13 14 14 14 14 14 14 14 15 15 14 15 15 14 14
12 12 12 12 12 12 12 12 12 12 12 12 12 12 12 12 12 12 12 12 12 12 12 13 13 13 13 13 13 13 13 14 14 14 14 14 14 14 14 14 14 14 14
13 12 12 12 12 12 12 12 12 12 12 12 12 12 12 12 12 12 12 12 12 12 12 12 12 13 13 13 13 13 13 13 13 13 14 14 14 14 14 14 14 14 14
13 13 13 13 13 13 13 13 12 12 12 12 12 12 12 12 12 12 13 12 12 12 12 12 12 12 12 12 12 12 12 13 13 13 13 13 13 13 13 13 14 14 14
13 13 13 13 13 13 13 13 13 12 12 12 12 12 12 12 12 12 12 12 12 12 12 12 12 12 12 12 12 12 12 12 12 12 13 13 13 13 13 13 13 14 14
13 13 13 13 13 13 13 13 13 12 12 12 12 12 12 12 12 12 12 12 12 12 12 12 12 12 12 12 12 12 12 12 12 12 12 12 13 13 13 13 13 13 14
13 13 13 13 13 13 13 13 13 12 12 12 12 12 12 12 12 12 12 12 12 12 12 12 12 12 12 12 12 12 12 12 12 12 12 12 12 12 12 13 13 13 13
14 13 13 13 13 13 13 13 13 13 12 12 12 12 12 12 12 12 12 12 12 12 12 12 12 12 12 12 12 12 12 12 12 12 12 12 12 11 12 12 12 12 13
Wind_Speed
5 5 4 4 5 4 4 4 5 5 6 6 6 6 7 7 7 7 5 7 7 7 7 8 8 9 10 10 10 9 9 10 10 10 10 10 10 10 10 9 9 9 9
5 5 5 4 5 5 4 5 5 5 5 5 5 6 7 7 7 7 6 7 9 8 7 8 9 10 11 11 10 9 10 10 11 10 10 10 10 10 9 9 9 9 9
6 5 5 5 5 5 5 5 5 4 5 5 6 6 6 6 6 7 7 6 7 9 8 8 9 10 11 11 11 10 11 11 11 11 11 10 10 10 9 9 8 8 9
6 6 5 5 5 5 4 4 4 4 4 5 5 4 5 4 7 6 7 7 6 6 8 9 9 9 10 11 11 11 11 12 12 12 11 11 10 9 9 9 8 8 9
6 5 5 5 6 4 4 4 3 4 4 4 4 4 4 4 5 6 7 6 6 6 5 9 10 9 10 11 11 11 12 12 13 13 12 11 11 10 9 9 8 8 8
6 6 5 5 5 4 4 4 4 3 4 4 4 3 4 4 4 5 5 5 5 7 6 7 8 9 10 9 10 11 11 12 13 13 12 12 12 11 10 10 9 9 9
6 5 5 4 4 4 4 5 4 4 3 3 3 2 3 3 3 3 3 4 5 5 6 6 6 6 8 10 10 11 11 12 13 14 14 13 12 12 11 11 11 10 10
6 5 5 4 4 4 4 4 3 3 3 2 2 2 3 3 3 3 3 3 3 4 5 6 6 6 5 7 9 11 11 11 12 13 15 15 14 13 12 12 12 11 11
5 5 5 5 4 4 3 4 4 3 3 3 2 2 2 2 2 3 3 3 3 3 3 4 5 6 6 6 7 10 10 10 11 12 13 15 15 15 14 13 12 12 11
5 4 4 4 4 4 3 3 3 3 3 3 2 2 2 1 1 1 2 2 3 3 3 3 3 4 5 5 5 7 10 10 10 11 12 13 15 15 15 14 14 13 13
4 4 5 4 4 4 3 3 3 3 3 3 2 2 1 1 2 2 1 2 2 2 2 2 2 2 3 4 6 7 10 11 10 10 11 11 13 14 14 14 14 14 14
4 5 5 4 4 3 3 3 3 3 3 3 3 3 2 2 2 2 2 2 2 1 2 2 2 2 2 3 5 6 9 10 10 10 10 11 11 12 13 13 13 13 14
5 6 5 4 4 4 3 3 3 3 3 4 4 3 2 2 1 2 2 2 2 1 2 2 2 2 2 3 3 5 8 10 10 10 10 10 11 11 12 13 13 13 13
5 6 5 4 4 4 3 3 3 2 2 3 3 3 3 2 2 2 2 2 2 2 3 2 2 2 1 2 2 5 7 10 10 10 11 11 11 11 12 12 13 13 13
5 5 5 4 3 3 3 3 2 2 2 2 2 3 2 2 2 2 3 2 3 3 2 2 2 2 2 2 2 4 6 8 10 11 11 11 11 11 12 13 13 12 13
5 5 5 4 3 3 3 2 2 1 1 1 1 2 2 2 2 2 3 3 3 3 2 1 1 1 2 3 3 4 4 5 9 10 11 11 12 12 12 12 13 13 13
4 5 4 4 4 3 2 2 2 1 1 0 1 1 2 2 2 2 2 2 2 2 2 2 1 1 2 2 2 3 3 5 6 9 9 10 11 12 12 12 13 13 13
4 4 4 4 3 3 2 2 2 2 1 0 0 1 2 1 2 2 2 3 2 3 3 3 2 1 2 2 2 3 3 3 4 6 8 9 10 11 11 12 13 13 14
3 3 3 4 3 2 2 2 2 2 1 1 0 1 1 2 2 2 3 3 2 2 2 3 3 2 2 2 2 3 3 3 4 5 8 10 10 11 11 12 12 13 13
3 3 3 3 3 3 2 2 2 2 1 0 0 1 1 1 2 2 3 3 3 3 3 3 3 3 2 2 3 3 3 3 3 3 4 5 7 10 12 12 13 13 14
3 3 3 3 3 3 3 3 2 1 1 0 0 0 1 1 3 2 3 3 3 3 3 3 3 3 3 3 3 2 3 3 4 3 3 4 5 6 8 12 14 14 14
3 3 3 3 3 2 4 4 4 1 1 0 1 0 0 1 2 2 3 3 4 4 4 4 4 4 4 4 3 3 4 4 3 2 4 4 5 6 6 7 9 12 14
2 3 3 3 2 3 3 3 4 2 1 1 1 1 0 0 2 3 4 6 5 6 6 6 6 6 5 4 4 5 5 5 5 3 4 5 5 6 5 6 9 12 13
2 2 3 3 2 3 3 3 4 3 1 1 1 1 1 1 1 2 3 3 4 4 5 6 6 6 5 4 5 6 6 5 5 4 4 5 5 5 5 6 9 12 13
2 3 2 3 3 2 1 2 5 2 2 1 1 1 2 2 2 3 3 3 3 3 3 5 6 6 5 6 6 5 5 5 5 4 4 4 4 5 5 6 6 10 12
3 3 3 3 3 3 2 2 5 2 2 2 1 1 1 2 2 3 4 4 4 3 3 3 5 6 6 6 9 8 7 6 5 4 4 4 4 3 4 4 4 5 8
Wind_Direction
305 305 298 303 298 295 279 275 268 262 257 251 243 237 240 236 240 239 222 191 224 240 237 223 211 205 198 193 188 186 182 172 168 165 160 156 154 150 151 149 149 150 152
308 306 299 300 298 295 293 280 270 268 263 253 245 242 243 239 236 238 245 206 206 225 231 223 210 205 198 196 190 189 185 177 171 167 164 162 160 157 156 157 155 155 158
309 307 305 302 299 297 290 281 277 268 262 255 245 239 239 241 242 233 236 239 212 202 213 217 208 202 199 198 193 190 188 180 174 171 170 168 167 165 162 160 160 160 160
313 310 305 303 305 299 291 280 274 268 259 256 252 243 242 234 242 237 234 231 230 213 195 197 196 197 199 200 195 191 189 182 180 176 176 174 173 171 169 168 167 168 166
315 308 302 302 303 297 291 287 280 280 274 265 257 240 241 236 237 234 230 228 223 221 206 178 187 195 199 200 198 194 191 187 185 183 182 181 181 180 179 177 177 177 176
317 313 301 301 302 294 288 285 285 277 279 270 261 246 231 230 231 235 233 224 220 216 208 190 188 190 190 196 201 199 196 195 191 188 188 187 187 188 187 186 186 187 186
321 316 307 304 299 295 291 287 281 275 272 270 261 244 214 210 215 226 229 223 210 211 203 194 194 188 185 192 199 203 202 201 198 194 193 192 193 194 195 196 195 195 195
326 320 314 307 300 292 284 285 279 279 276 254 260 251 214 189 196 207 213 215 214 202 206 194 191 189 196 190 185 195 203 205 205 203 199 197 197 200 202 202 202 201 200
328 323 316 310 304 295 289 281 274 269 278 264 251 254 238 209 189 183 203 207 214 218 209 201 197 195 197 195 185 188 197 203 206 208 207 204 203 205 206 205 205 205 206
335 330 318 308 303 299 293 281 277 269 268 265 252 255 289 303 227 193 186 196 205 215 207 202 206 206 207 200 190 181 190 201 206 208 209 210 209 208 209 210 209 209 209
343 340 325 314 307 301 299 294 287 272 256 253 255 245 242 244 251 247 214 208 200 210 208 209 214 223 212 208 202 188 187 199 206 211 212 213 213 212 212 212 211 213 211
343 347 335 324 319 311 306 298 277 262 259 248 248 240 236 231 230 247 245 235 218 207 206 196 208 219 230 225 211 176 187 198 205 212 214 213 210 211 212 212 215 216 216
343 346 336 333 332 321 313 299 276 266 251 243 241 244 241 253 252 252 250 241 242 229 204 196 192 203 226 233 215 179 196 196 202 208 212 213 210 212 213 213 216 217 219
339 340 335 336 334 327 316 305 289 268 259 251 247 240 233 236 245 243 245 242 235 227 210 194 183 198 218 228 190 206 206 196 202 208 213 216 215 215 216 215 218 220 222
337 340 342 340 343 338 326 313 303 291 268 260 252 230 226 222 234 238 243 242 249 247 228 186 181 197 224 223 180 222 220 191 202 210 214 217 218 219 220 218 219 222 224
340 339 341 342 346 340 328 322 318 324 282 257 259 243 229 228 228 228 234 238 251 259 256 253 239 221 230 234 206 234 233 189 205 209 214 216 216 218 220 220 218 218 221
335 340 343 345 346 344 340 333 332 345 313 290 231 239 242 247 237 227 226 226 237 246 240 266 281 249 231 234 225 236 235 230 216 198 207 213 215 218 220 222 220 219 219
333 338 341 344 347 346 343 338 340 338 337 327 218 238 243 232 241 240 233 228 229 237 232 246 259 268 269 246 245 247 245 237 237 193 203 213 216 217 221 221 220 219 219
333 337 336 339 339 339 337 334 331 317 306 293 257 235 244 225 227 225 228 228 230 232 235 242 262 282 271 253 251 249 240 238 243 212 204 213 218 219 221 221 221 222 223
334 337 332 336 335 336 329 325 318 314 305 329 289 260 259 251 245 236 233 228 228 230 229 230 239 247 257 257 254 256 257 242 242 235 223 223 215 217 222 222 222 223 223
325 334 336 338 342 339 354 341 329 330 328 53 27 331 331 343 348 312 281 254 236 233 234 234 237 241 244 245 256 268 269 268 257 240 244 239 226 227 221 220 221 223 224
317 333 341 346 350 356 17 350 319 329 331 52 64 11 202 205 207 236 280 300 294 260 248 245 245 245 251 253 258 259 266 266 264 230 252 255 246 244 240 234 215 213 222
313 319 335 338 342 6 12 343 313 309 306 321 348 4 1 329 253 244 217 217 235 244 259 268 262 259 258 255 257 255 252 257 268 264 262 259 246 249 248 237 213 217 224
302 306 323 327 328 350 4 331 296 273 279 280 287 283 280 295 305 289 261 254 260 247 241 249 262 269 271 266 256 260 266 263 273 258 242 258 259 261 262 248 218 218 223
288 291 306 306 303 316 13 324 293 275 269 270 277 294 295 294 51 308 266 263 272 265 220 244 280 284 295 273 258 251 247 248 265 262 242 248 264 274 270 258 231 216 224
278 283 287 289 294 305 25 334 295 274 278 275 258 241 92 328 354 297 271 269 274 287 284 259 245 236 245 234 221 237 245 247 259 260 229 234 261 275 272 253 244 235 230
Height
1511 1510 1509 1508 1508 1507 1507 1507 1508 1508 1509 1510 1511 1512 1513 1514 1516 1517 1519 1519 1520 1521 1522 1523 1524 1526 1527 1528 1530 1531 1532 1534 1535 1537 1538 1539 1541 1542 1544 1545 1547 1548 1549
1509 1508 1508 1506 1506 1505 1505 1505 1505 1505 1506 1507 1508 1509 1510 1512 1513 1514 1516 1517 1518 1520 1521 1522 1523 1525 1526 1527 1529 1530 1532 1533 1535 1536 1538 1539 1541 1542 1544 1545 1547 1548 1550
1508 1506 1505 1505 1504 1503 1503 1502 1503 1503 1503 1504 1505 1506 1508 1509 1510 1512 1513 1515 1517 1517 1519 1521 1522 1523 1525 1526 1528 1530 1531 1533 1534 1536 1538 1539 1541 1542 1544 1545 1547 1548 1550
1506 1505 1504 1503 1502 1501 1501 1500 1500 1501 1501 1502 1502 1504 1505 1506 1508 1509 1511 1513 1514 1516 1517 1519 1520 1522 1523 1525 1527 1529 1530 1532 1534 1535 1537 1539 1540 1542 1544 1545 1546 1548 1549
1504 1503 1502 1501 1500 1499 1499 1499 1499 1499 1499 1499 1500 1501 1502 1503 1505 1507 1509 1511 1512 1514 1515 1516 1518 1520 1522 1524 1525 1527 1529 1531 1533 1535 1536 1538 1540 1541 1543 1544 1546 1547 1549
1503 1501 1500 1499 1498 1498 1497 1497 1497 1497 1497 1497 1498 1499 1500 1501 1503 1504 1507 1508 1510 1512 1513 1515 1517 1518 1520 1522 1524 1526 1528 1529 1531 1533 1535 1537 1538 1540 1542 1543 1545 1546 1547
1501 1500 1499 1498 1496 1496 1495 1495 1495 1495 1495 1496 1497 1497 1498 1499 1501 1502 1504 1506 1508 1509 1511 1513 1515 1517 1518 1520 1522 1524 1526 1528 1530 1532 1533 1535 1537 1539 1540 1542 1544 1545 1546
1500 1499 1498 1496 1495 1494 1494 1493 1493 1494 1494 1495 1495 1496 1497 1499 1499 1500 1502 1503 1505 1507 1509 1511 1513 1514 1516 1518 1519 1521 1524 1526 1528 1530 1532 1533 1535 1537 1539 1540 1542 1543 1544
1498 1497 1496 1495 1494 1493 1492 1492 1492 1492 1493 1493 1494 1495 1495 1496 1497 1499 1500 1501 1503 1504 1507 1509 1511 1513 1514 1516 1517 1519 1521 1523 1526 1527 1529 1531 1533 1535 1537 1538 1540 1541 1542
1497 1495 1494 1493 1492 1492 1491 1491 1491 1491 1491 1492 1492 1493 1494 1495 1496 1497 1498 1499 1500 1502 1504 1506 1508 1510 1512 1513 1515 1516 1519 1521 1523 1525 1527 1529 1531 1532 1534 1536 1537 1539 1540
1497 1495 1493 1492 1491 1491 1490 1489 1489 1489 1490 1490 1491 1492 1493 1493 1494 1495 1496 1498 1499 1500 1501 1503 1505 1507 1509 1511 1512 1514 1516 1518 1520 1522 1524 1526 1528 1530 1531 1533 1535 1536 1537
1497 1494 1493 1492 1490 1490 1489 1488 1488 1488 1488 1489 1490 1491 1491 1492 1493 1494 1495 1496 1497 1498 1499 1500 1502 1504 1506 1508 1510 1511 1513 1515 1517 1519 1521 1523 1525 1526 1528 1530 1531 1533 1534
1497 1494 1492 1491 1490 1488 1488 1487 1487 1487 1487 1488 1489 1489 1490 1491 1492 1493 1494 1495 1495 1497 1497 1499 1500 1501 1503 1505 1506 1508 1510 1512 1514 1515 1517 1520 1521 1523 1525 1526 1528 1529 1531
1496 1494 1492 1490 1489 1487 1487 1486 1486 1486 1486 1487 1487 1488 1489 1490 1491 1491 1493 1493 1494 1495 1496 1497 1498 1499 1501 1502 1503 1505 1507 1508 1510 1512 1514 1516 1518 1519 1521 1522 1524 1526 1527
1496 1494 1492 1490 1489 1487 1486 1486 1485 1485 1485 1486 1486 1487 1488 1488 1489 1490 1491 1492 1494 1494 1495 1496 1496 1497 1498 1500 1501 1502 1503 1505 1506 1508 1510 1512 1513 1515 1517 1518 1520 1521 1523
1496 1494 1492 1490 1489 1487 1486 1485 1485 1484 1485 1485 1485 1485 1486 1487 1488 1488 1489 1490 1491 1493 1493 1494 1494 1495 1496 1497 1498 1499 1500 1501 1503 1505 1506 1508 1509 1511 1513 1514 1516 1517 1518
1496 1494 1492 1491 1489 1487 1486 1485 1485 1484 1484 1484 1485 1485 1485 1486 1487 1487 1488 1489 1490 1491 1492 1492 1493 1493 1494 1495 1495 1496 1497 1498 1500 1501 1502 1504 1505 1507 1508 1510 1511 1513 1514
1496 1494 1492 1491 1489 1487 1486 1486 1485 1484 1484 1484 1484 1484 1485 1485 1485 1486 1487 1488 1488 1489 1490 1490 1491 1491 1492 1492 1493 1493 1494 1495 1496 1497 1498 1499 1501 1502 1503 1505 1506 1508 1509
1496 1494 1492 1491 1489 1488 1486 1486 1485 1484 1484 1484 1484 1484 1484 1484 1485 1485 1486 1486 1487 1488 1488 1488 1489 1489 1490 1490 1490 1491 1492 1492 1493 1493 1494 1495 1496 1497 1499 1500 1501 1503 1504
1496 1494 1492 1491 1489 1488 1487 1486 1485 1485 1484 1483 1483 1483 1483 1483 1484 1484 1485 1485 1486 1486 1486 1487 1487 1487 1488 1488 1488 1489 1489 1489 1490 1490 1491 1491 1492 1493 1494 1495 1496 1497 1498
1495 1494 1492 1491 1489 1487 1486 1485 1485 1484 1484 1483 1483 1483 1482 1482 1482 1483 1483 1484 1484 1485 1485 1485 1485 1486 1486 1486 1486 1486 1486 1486 1487 1487 1487 1487 1488 1488 1489 1490 1491 1492 1493
1495 1494 1492 1491 1489 1487 1486 1485 1484 1484 1484 1483 1483 1482 1482 1481 1481 1481 1481 1482 1482 1483 1483 1483 1483 1483 1483 1484 1483 1483 1484 1484 1484 1484 1483 1484 1484 1484 1484 1485 1485 1486 1487
1494 1493 1492 1491 1489 1488 1486 1485 1484 1484 1483 1483 1483 1482 1481 1481 1480 1480 1480 1480 1480 1480 1480 1481 1481 1481 1481 1481 1481 1481 1481 1481 1480 1480 1480 1480 1480 1480 1480 1480 1480 1481 1482
1494 1493 1492 1490 1489 1487 1486 1485 1484 1484 1483 1483 1482 1481 1481 1480 1480 1479 1479 1479 1479 1478 1478 1478 1478 1478 1478 1478 1478 1478 1477 1477 1477 1477 1476 1476 1476 1476 1476 1476 1475 1476 1476
1493 1492 1491 1490 1488 1487 1486 1485 1484 1483 1483 1483 1482 1481 1480 1480 1479 1478 1478 1477 1477 1476 1476 1475 1475 1475 1474 1474 1474 1474 1474 1474 1474 1474 1473 1472 1472 1472 1471 1471 1471 1471 1471
1492 1491 1490 1489 1488 1487 1486 1484 1483 1483 1483 1482 1481 1480 1479 1478 1478 1477 1477 1476 1476 1475 1474 1473 1473 1472 1472 1471 1471 1471 1471 1471 1471 1471 1470 1469 1469 1469 1468 1467 1467 1466 1466